CAPE
8 25 19 46 31 63 14 23 118 439 602 361 124 5 13 2443 2330 2336 2112 2247 3167 3539 3729 2428 1604 2421 2220 1995 1301 659 688 1344 1926 1895 1827 1490 1384 1236 999 882 640 551 435 191
13 21 7 28 31 29 61 26 3 134 420 99 135 4 2 2151 2178 2057 2072 2166 3030 2928 3216 2429 1521 2019 2356 2182 1794 1034 1177 1999 2167 1996 1721 1685 1619 1170 1187 904 716 625 474 247
51 13 25 44 18 48 25 81 21 246 543 226 250 463 890 2625 2043 1887 1800 1647 1976 2902 3373 2282 1824 2155 2526 2394 2451 1166 1506 1874 1921 2147 1889 1814 1714 1246 1011 999 885 553 297 101
181 486 116 37 19 11 1 133 719 899 1115 1160 1479 1449 2341 2410 1897 1944 1878 1667 1836 2682 3080 2585 2014 2398 2617 2286 2689 2407 1823 1727 1477 1522 1523 1146 1907 1457 1218 989 824 624 509 298
473 136 70 55 49 55 50 191 1243 570 390 1140 1526 1976 2481 2141 2876 3019 2868 2935 2972 3233 3362 3048 2502 2937 2329 2132 2412 2194 1533 960 493 966 1221 1024 1557 1607 1530 1139 791 432 435 211
664 273 210 409 662 226 468 642 491 84 9 91 1734 1785 2264 3157 2780 2680 2466 2724 2654 3176 3578 2933 3373 3065 2534 1819 1343 1576 581 598 358 310 431 597 957 1712 1497 887 597 241 290 184
453 334 323 699 152 427 1011 1121 316 460 544 1028 2681 2974 3409 2691 2454 2251 2203 2505 3149 3420 3200 3239 2869 2068 1833 1359 1117 722 892 378 97 233 158 496 303 615 956 1122 625 363 271 96
701 582 485 1552 173 191 128 27 622 961 2971 3130 2807 2935 2911 2420 2253 1882 1885 2097 2381 2231 1995 1994 2762 2096 1925 2119 1434 1062 821 581 342 301 346 394 583 451 663 507 568 330 174 53
918 892 673 1453 1974 2606 2276 2476 2034 1784 1911 2013 2219 2535 2891 2276 1845 1652 1647 1725 1596 1564 1685 1613 1721 2163 2231 1619 1396 1105 685 681 310 225 220 162 361 1369 514 258 109 149 26 26
441 1475 1052 827 2117 2013 2176 1841 1344 1407 1564 1735 2084 2410 2766 2423 2077 1794 2034 2020 1853 1626 1398 1086 834 924 772 650 548 424 360 182 80 92 85 52 66 207 129 25 2 1 21 22
1294 1444 979 1965 1791 2220 2177 2191 1143 1174 1465 1842 1961 2266 2468 2758 2653 2254 2232 2148 1715 1722 1163 1006 532 427 366 187 131 158 72 60 45 30 7 2 2 2 0 0 0 0 0 0
1129 1548 1823 2298 2364 1900 1861 1577 1428 1544 1750 1774 2008 2270 2004 2066 2510 2219 1915 1529 1558 1239 1026 950 701 494 250 118 229 123 84 57 60 5 0 0 0 1 0 0 0 0 0 0
215 1561 2094 2017 1950 1699 1731 1724 1712 1779 1898 2236 2038 1763 1656 2017 1829 1059 1348 1389 1305 1201 930 820 769 770 525 200 69 24 59 191 103 20 0 1 1 1 0 0 0 0 0 0
115 1108 1251 1298 1942 1636 1290 1217 859 749 598 633 364 4 990 852 1024 918 919 810 682 577 548 585 589 601 866 639 282 13 2 0 3 77 6 0 1 0 0 0 0 0 0 0
155 248 886 1772 884 831 443 229 130 116 250 293 245 135 5 315 1136 908 848 505 465 443 343 398 303 769 649 429 680 274 32 8 14 7 20 7 1 0 0 0 1 0 0 0
317 486 298 713 1044 105 0 72 205 38 6 0 3 10 0 4 157 194 496 461 399 531 448 479 811 1020 615 559 488 99 44 1 0 10 2 9 11 16 11 0 0 0 0 0
577 871 360 425 532 1 141 129 3 64 49 9 3 0 5 0 11 316 472 325 677 683 826 780 684 644 771 769 571 163 17 30 4 9 19 23 21 18 69 52 24 20 0 0
265 592 463 744 494 305 113 220 80 101 97 32 17 43 34 40 96 516 581 544 592 632 631 577 571 644 649 686 572 226 116 24 19 3 20 27 43 36 59 31 60 46 0 0
182 202 191 213 135 250 204 218 192 162 134 106 66 101 138 106 264 380 385 368 461 595 528 811 84 186 947 837 274 220 153 18 19 9 0 0 0 0 0 0 0 0 0 0
24 15 16 14 27 38 106 99 93 108 111 99 102 72 116 32 72 102 229 262 256 169 194 188 226 474 810 701 174 211 196 85 49 6 0 0 0 0 0 2 0 9 3 0
31 23 21 32 32 23 56 77 100 101 97 70 71 65 51 65 43 54 65 15 228 277 9 1 107 173 198 152 189 275 183 174 124 43 1 0 0 0 0 25 1 0 31 23
218 65 85 84 76 86 119 77 61 47 1 1 4 6 5 10 12 14 17 14 3 1 0 2 8 0 0 0 271 361 273 216 204 192 28 0 0 0 0 2 1 0 0 0
146 127 111 103 100 59 70 130 30 5 14 15 11 13 16 12 4 7 12 16 9 1 0 9 2 0 0 1 374 288 451 531 556 295 118 0 0 0 0 0 0 0 0 0
78 105 117 220 158 161 169 127 80 56 49 16 19 11 7 5 4 10 7 0 0 0 0 0 0 0 0 4 209 135 40 460 247 12 11 0 0 0 0 0 0 0 0 0
310 212 329 233 95 68 110 82 132 31 21 28 22 17 4 8 7 11 10 8 2 1 4 15 0 0 5 209 139 43 30 69 17 0 0 0 0 0 0 0 0 0 0 0
138 320 542 201 73 56 25 58 45 20 20 7 22 14 3 3 8 5 6 2 1 1 3 2 0 7 6 5 3 3 4 4 2 1 0 0 0 0 0 0 0 0 0 0
251 3 250 53 172 55 20 4 33 12 30 15 20 22 18 11 10 11 0 2 2 2 3 5 9 5 4 3 4 5 5 1 0 1 0 0 0 0 0 0 1 1 3 2
CIN
-51 -35 -17 -26 -33 -11 -37 -39 -21 -49 -125 -207 -352 -162 -118 -11 -47 -50 -68 -35 -5 -1 -2 -76 -125 -7 -1 -0 -14 -16 -23 -18 -4 -3 -0 -1 -0 -0 -0 -0 -1 -0 -0 -0
-74 -48 -51 -28 -22 -339 -48 -11 -39 -13 -195 -515 -395 -230 -65 -19 -65 -74 -67 -20 -2 -35 -4 -57 -111 -25 -0 -0 -2 -6 -12 -11 -7 -6 -8 -0 -0 -2 -0 -1 -0 -0 -0 -1
-51 -60 -33 -38 -33 -1 -1 -1 -23 -12 -131 -349 -364 -267 -154 -25 -52 -71 -73 -47 -31 -9 -1 -73 -83 -22 -0 -3 -1 -20 -9 -7 -8 -4 -1 -2 -2 -2 -6 -2 -0 -0 -8 -24
-10 -2 -18 -30 -21 -11 -7 -2 -26 -185 -243 -326 -335 -41 -8 -33 -73 -78 -78 -59 -54 -6 -1 -36 -52 -8 -0 -2 -1 -1 -12 -21 -30 -17 -15 -23 -1 -5 -7 -1 -1 -0 -0 -7
-1 -7 -28 -20 -12 -3 -1 -1 -75 -202 -203 -183 -127 -10 -35 -53 -64 -58 -60 -57 -45 -2 -1 -10 -6 -3 -7 -5 -0 -5 -10 -20 -35 -19 -18 -27 -4 -1 -1 -0 -1 -1 -1 -6
-0 -0 -0 -0 -59 -267 -79 -22 -483 -742 -254 -276 -8 -6 -55 -30 -102 -129 -159 -103 -60 -8 -15 -18 -12 -1 -0 -25 -45 -0 -15 -45 -60 -35 -25 -7 -6 -0 -1 -1 -10 -24 -1 -5
-1 -2 -1 -136 -245 -150 -33 -76 -263 -221 -198 -56 -29 -26 -48 -127 -169 -179 -156 -101 -28 -13 -19 -12 -1 -18 -16 -43 -49 -50 -17 -107 -155 -81 -17 -20 -11 -6 -14 -1 -2 -7 -6 -41
-0 -0 -5 -73 -174 -303 -593 -334 -38 -38 -12 -43 -86 -27 -51 -131 -131 -190 -160 -91 -62 -67 -82 -66 -7 -16 -12 -3 -37 -42 -41 -75 -71 -31 -27 -42 -21 -25 -19 -13 -1 -5 -11 -53
-13 -42 -165 -6 -10 -3 -15 -2 -5 -3 -28 -55 -50 -46 -36 -119 -175 -174 -151 -122 -115 -100 -84 -72 -48 -18 -6 -30 -22 -34 -73 -58 -111 -120 -111 -150 -70 -0 -28 -34 -47 -15 -85 -78
-0 -18 -53 -57 -10 -34 -17 -3 -6 -20 -11 -9 -15 -4 -5 -42 -56 -92 -49 -37 -37 -57 -81 -118 -140 -136 -146 -154 -140 -140 -140 -192 -245 -224 -227 -269 -235 -103 -109 -163 -132 -128 -108 -81
-1 -23 -27 -37 -3 -1 -11 -5 -17 -14 -2 -0 -0 -1 -0 -0 -3 -16 -12 -8 -23 -34 -79 -101 -161 -199 -214 -253 -256 -227 -249 -298 -305 -352 -412 -0 -0 -0 -0 -0 -0 -0 -0 -0
-0 -1 -2 -5 -10 -9 -0 -25 -3 -0 -0 -1 -1 -2 -1 -0 -0 -3 -1 -13 -14 -40 -65 -66 -100 -154 -218 -236 -208 -213 -241 -242 -241 -40 -0 -0 -0 -0 -0 -0 -0 -0 -0 -0
-144 -0 -0 -1 -7 -1 -0 -1 -1 -0 -1 -11 -10 -16 -9 -0 -6 -35 -1 -0 -2 -9 -23 -38 -51 -71 -136 -198 -221 -264 -203 -128 -168 -214 -0 -0 -0 -0 -0 -0 -0 -0 -0 -0
-104 -0 -1 -8 -0 -4 -103 -81 -133 -170 -189 -175 -238 -247 -67 -21 -13 -0 -1 -1 -12 -29 -27 -25 -28 -39 -40 -73 -116 -69 -2 -0 -5 -129 -6 -0 -0 -0 -0 -0 -0 -0 -0 -0
-62 -26 -1 -0 -130 -103 -103 -109 -181 -200 -172 -157 -159 -206 -48 -121 -9 -14 -10 -2 -7 -19 -26 -20 -33 -1 -12 -47 -19 -63 -98 -0 -0 -0 -4 -8 -9 -1 -0 -1 -0 -0 -0 -0
-36 -4 -2 -1 -69 -163 -0 -188 -48 -95 -178 -72 -47 -149 -0 -219 -62 -68 -1 -0 -11 -8 -8 -6 -2 -0 -5 -4 -2 -12 -44 -2 -6 -19 -3 -4 -5 -1 -2 -0 -0 -0 -0 -0
-7 -0 -0 -1 -112 -7 -159 -144 -13 -55 -75 -125 -83 -0 -112 -2 -6 -0 -4 -5 -3 -2 -0 -1 -3 -1 -3 -7 -3 -0 -5 -4 -7 -10 -7 -6 -6 -1 -0 -0 -6 -3 -0 -0
-1 -2 -0 -7 -53 -70 -83 -72 -8 -9 -6 -25 -20 -9 -6 -4 -3 -2 -2 -1 -1 -2 -1 -3 -3 -5 -2 -0 -1 -0 -13 -5 -2 -28 -2 -4 -25 -13 -25 -13 -20 -12 -4 -0
-3 -2 -1 -0 -5 -54 -53 -0 -3 -1 -1 -3 -3 -1 -2 -10 -5 -2 -4 -6 -6 -2 -4 -6 -35 -24 -2 -3 -11 -10 -16 -6 -0 -10 -0 -0 -0 -0 -0 -0 -0 -0 -0 -0
-17 -24 -8 -13 -8 -2 -11 -18 -3 -1 -2 -1 -0 -0 -0 -3 -1 -0 -0 -0 -3 -7 -31 -42 -44 -3 -2 -12 -44 -10 -3 -3 -0 -15 -0 -0 -0 -0 -1 -47 -0 -17 -15 -0
-1 -59 -43 -43 -38 -6 -4 -1 -0 -0 -0 -0 -0 -2 -9 -9 -10 -5 -0 -0 -1 -14 -44 -53 -11 -2 -13 -36 -54 -16 -17 -0 -1 -13 -31 -0 -0 -0 -0 -85 -12 -0 -57 -108
-2 -1 -1 -0 -0 -1 -0 -2 -0 -3 -4 -0 -0 -0 -0 -0 -0 -0 -0 -0 -0 -1 -0 -1 -3 -0 -0 -0 -19 -0 -4 -1 -0 -0 -22 -0 -0 -0 -0 -37 -52 -0 -0 -79
-7 -8 -9 -2 -0 -2 -2 -7 -12 -6 -0 -4 -0 -3 -0 -0 -0 -0 -0 -0 -1 -0 -0 -0 -0 -0 -0 -5 -16 -11 -3 -5 -17 -10 -27 -0 -0 -0 -0 -0 -0 -0 -0 -0
-26 -23 -8 -1 -6 -9 -6 -0 -4 -5 -1 -9 -0 -0 -0 -0 -0 -0 -0 -0 -0 -0 -0 -16 -6 -0 -0 -8 -29 -30 -109 -12 -74 -28 -3 -0 -0 -0 -0 -0 -0 -0 -0 -0
-0 -1 -1 -0 -2 -15 -12 -28 -8 -2 -2 -1 -0 -0 -3 -1 -0 -0 -0 -0 -0 -0 -0 -0 -0 -0 -2 -1 -3 -9 -76 -66 -85 -0 -0 -0 -0 -0 -0 -0 -0 -0 -0 -0
-0 -0 -0 -0 -33 -22 -0 -27 -0 -1 -2 -0 -0 -0 -0 -0 -0 -0 -0 -0 -0 -0 -0 -0 -0 -0 -0 -0 -0 -0 -0 -0 -0 -0 -0 -0 -0 -0 -0 -0 -0 -0 -0 -0
-0 -3 -0 -26 -5 -3 -3 -0 -0 -0 -1 -0 -0 -0 -0 -8 -0 -0 -0 -0 -0 -0 -0 -0 -0 -0 -0 -0 -0 -0 -0 -0 -0 -0 -0 -0 -0 -0 -0 -0 -0 -0 -44 -63
Wind_Speed
16 19 18 18 18 22 19 17 16 9 14 3 6 12 17 3 4 8 6 4 7 5 6 9 6 6 7 6 10 10 10 4 9 8 8 7 6 6 5 4 5 5 5 3
17 19 21 20 8 7 31 15 15 13 9 5 2 5 7 4 4 7 6 4 9 6 6 9 8 6 7 6 7 8 10 5 8 5 7 7 6 5 6 6 5 3 4 6
14 17 18 19 20 14 13 10 12 8 13 17 3 4 11 7 8 8 7 4 6 8 7 10 9 6 7 6 5 9 6 5 8 8 7 7 8 5 6 5 5 3 4 7
12 14 19 15 19 20 16 11 10 22 22 20 13 14 8 8 8 7 6 4 4 6 5 10 9 7 6 5 5 5 8 4 8 10 10 8 8 8 6 6 6 4 4 7
12 14 17 19 20 21 13 12 12 22 15 27 25 14 8 4 9 9 6 5 4 4 6 9 9 9 5 3 3 4 4 0 3 4 7 10 10 9 7 8 6 5 4 7
12 15 20 15 7 14 19 7 17 28 15 23 16 12 9 8 10 9 6 3 2 6 9 7 11 8 6 5 3 2 1 3 5 6 8 7 6 8 7 8 7 6 5 6
13 14 17 10 8 11 4 5 15 18 21 21 7 8 14 12 10 8 6 6 8 10 7 9 6 3 3 4 4 4 3 5 6 5 6 5 5 7 7 7 7 5 5 6
13 17 15 15 12 4 7 18 15 14 14 16 14 12 15 12 10 9 8 6 9 8 8 9 6 1 2 5 7 4 4 4 5 3 3 4 3 5 5 5 6 5 5 4
10 4 3 11 10 12 2 0 9 9 12 12 14 14 15 12 11 8 8 7 7 7 7 6 7 6 2 5 2 4 4 3 4 3 3 4 6 1 4 5 5 4 4 5
23 5 6 5 9 7 5 4 7 9 8 12 12 13 15 13 11 8 7 8 7 8 7 6 5 6 4 3 2 1 2 3 2 2 1 4 3 2 4 6 5 4 4 5
6 13 12 13 6 7 5 4 6 5 6 10 11 13 10 10 11 7 7 7 7 6 5 6 4 4 4 2 1 2 1 2 1 1 0 2 3 3 2 3 1 5 3 4
4 6 10 8 3 7 7 5 8 8 8 9 11 12 10 9 10 8 7 6 6 7 4 4 3 5 4 1 2 3 4 4 4 4 3 1 1 1 8 6 8 9 6 1
13 15 15 11 5 6 3 10 8 8 8 11 11 11 11 11 10 5 7 5 5 6 4 3 2 5 8 6 3 3 4 4 2 3 5 5 4 3 3 2 8 8 7 8
25 6 8 8 8 6 19 17 19 17 16 15 14 14 9 11 6 5 6 6 4 4 2 2 2 2 6 6 6 3 4 4 5 4 5 5 5 6 4 5 5 3 3 4
15 25 13 12 23 22 18 18 17 15 12 12 12 10 11 9 6 4 3 1 1 2 4 4 4 6 2 2 5 4 4 5 5 6 2 5 5 6 6 8 7 6 4 3
12 13 12 9 21 16 12 10 9 3 4 5 6 4 4 3 6 8 6 4 3 5 4 4 6 6 3 2 5 5 6 8 5 3 5 5 6 7 8 8 9 9 9 9
2 10 9 8 18 12 10 10 13 8 7 7 6 6 4 3 4 5 6 6 5 6 6 5 8 7 4 5 7 5 7 5 8 7 9 6 7 10 11 10 10 9 9 11
4 6 7 11 11 11 2 13 7 8 5 5 2 5 2 2 4 5 5 6 6 6 8 8 8 7 6 6 6 6 6 5 4 5 10 6 10 10 11 9 10 11 7 10
7 7 7 9 7 13 13 4 6 4 4 2 4 4 5 6 6 6 7 8 9 9 9 6 6 4 6 6 5 6 6 7 7 6 7 4 8 4 4 3 4 4 10 10
4 3 5 3 6 7 4 4 6 5 5 6 7 7 7 8 8 8 8 9 9 9 12 14 12 11 9 6 11 6 7 7 7 6 6 4 5 1 3 7 4 3 6 11
5 6 7 7 7 6 7 6 4 4 4 5 7 8 9 10 11 12 12 10 9 10 12 12 10 10 11 11 9 8 9 7 7 8 5 4 2 4 5 5 5 7 5 5
7 9 9 9 7 6 7 8 7 9 9 9 9 10 10 9 9 9 10 10 10 10 11 10 10 14 14 23 6 9 8 8 7 7 6 4 4 3 3 3 4 2 4 5
5 6 6 7 8 7 7 9 9 8 8 7 8 7 7 7 8 8 9 10 10 12 11 10 15 15 15 12 10 7 10 7 5 5 4 2 3 1 4 5 4 6 7 7
3 4 5 5 5 5 6 6 6 6 6 8 6 9 8 7 7 8 9 12 15 13 12 11 9 14 12 9 9 5 7 5 4 3 2 6 6 6 6 6 6 5 5 7
4 3 1 4 3 3 3 3 5 8 5 7 5 7 7 5 5 6 6 7 10 10 9 9 11 14 8 9 9 7 6 7 6 6 7 6 5 5 4 4 4 4 4 3
5 4 5 4 4 4 4 5 4 4 6 3 5 6 5 4 4 5 5 7 7 9 6 6 6 6 7 9 9 8 7 8 8 8 7 6 5 5 4 4 3 2 3 3
2 2 1 3 6 5 4 4 3 4 4 2 4 4 4 4 5 4 5 5 5 6 6 6 6 8 7 7 7 7 7 5 8 4 4 4 2 2 3 2 0 2 3 3
Wind_Direction
271 271 283 273 239 220 233 236 250 159 122 184 143 125 236 89 144 144 136 161 125 123 132 115 129 153 184 206 147 172 225 190 148 148 151 144 166 144 127 133 101 115 125 127
276 279 271 271 219 64 265 227 238 233 161 241 115 108 228 215 166 142 134 150 138 140 182 131 142 191 177 180 157 187 222 146 129 144 151 167 159 147 152 128 127 135 142 103
256 267 264 267 263 257 270 248 247 274 135 158 144 215 248 177 176 150 149 134 123 150 185 146 153 202 167 176 191 185 225 190 160 165 188 170 154 180 154 142 137 122 84 98
260 260 253 267 266 261 250 253 128 121 124 130 132 242 163 193 143 132 126 97 99 151 164 143 159 158 196 173 207 217 209 220 168 184 186 189 166 177 157 156 161 141 133 123
245 256 261 263 258 259 234 250 34 114 140 159 172 134 115 131 82 77 77 76 39 14 129 146 156 129 151 189 226 251 269 45 336 308 215 197 182 181 173 156 162 168 160 134
261 247 251 264 355 7 338 146 97 94 84 330 155 147 142 109 106 88 70 41 135 352 112 106 111 147 158 174 202 216 118 53 34 343 334 284 224 168 172 169 169 156 191 161
232 255 257 9 5 70 13 20 150 132 167 188 94 92 114 104 88 83 86 65 51 33 101 106 111 146 173 138 180 187 138 105 60 12 280 197 224 263 183 180 158 167 157 144
251 234 225 10 360 55 188 311 144 148 107 108 115 118 109 106 101 82 78 93 73 63 43 34 26 181 193 155 117 115 85 106 124 220 302 329 259 214 209 161 157 147 145 154
317 84 60 92 78 29 131 304 57 91 115 125 127 119 109 104 97 103 100 101 97 89 89 61 30 350 68 84 123 147 134 108 67 36 15 14 357 225 120 131 163 162 157 196
284 53 72 94 114 121 65 319 121 124 144 126 121 124 121 125 127 121 130 117 112 113 102 87 62 44 57 45 31 224 175 138 175 247 14 18 20 36 153 164 173 164 173 227
166 170 144 122 82 108 123 265 99 105 110 118 132 120 109 120 107 88 59 55 72 69 73 97 97 89 99 55 252 210 118 130 218 119 284 76 54 3 338 49 214 179 197 213
118 114 136 112 150 152 158 143 148 134 116 126 119 120 121 106 115 128 115 106 100 109 121 124 111 113 117 175 250 258 232 219 217 174 190 155 166 131 50 57 59 64 47 181
321 130 118 122 154 122 128 148 151 137 73 85 78 81 97 93 69 78 120 122 87 83 92 89 99 139 150 162 217 239 282 304 269 200 182 180 188 195 183 68 84 71 62 85
326 355 116 144 114 77 67 68 67 68 59 57 56 42 40 110 159 109 80 75 71 52 28 9 338 23 145 163 171 235 274 242 281 267 184 194 201 199 197 185 182 157 63 101
324 337 18 57 70 57 48 40 40 50 53 57 53 47 39 13 75 92 86 81 4 355 309 315 323 324 286 240 183 210 251 272 264 239 214 188 188 205 215 196 190 173 132 140
286 315 317 30 94 84 90 53 8 47 53 54 61 12 352 328 326 337 333 242 238 296 321 308 313 317 349 249 280 261 249 247 263 262 248 223 200 216 208 206 196 184 181 182
288 274 296 353 120 126 132 188 193 184 158 141 147 153 176 246 305 1 3 353 2 342 315 245 250 257 204 194 241 273 273 263 213 248 253 233 231 219 227 214 203 188 197 172
217 316 315 87 70 64 284 202 176 163 103 95 83 15 344 350 356 340 323 315 312 307 308 300 308 300 233 247 221 249 260 259 216 238 255 249 223 235 218 222 197 187 192 142
16 10 13 43 50 128 174 0 54 80 121 230 332 319 332 322 315 311 316 317 309 298 285 336 320 298 282 275 233 242 245 261 259 276 281 305 288 233 273 235 233 221 140 153
89 17 8 17 41 72 38 11 25 352 8 5 339 319 312 308 307 301 300 297 296 297 297 299 308 282 274 248 187 232 268 279 249 239 293 280 283 291 2 342 289 241 189 165
12 358 338 12 21 359 356 12 349 334 337 355 344 350 344 333 329 330 314 298 309 348 334 309 297 305 329 316 174 219 233 241 242 221 251 260 353 31 57 26 26 25 20 62
354 340 348 357 340 317 7 354 336 27 12 1 359 3 350 336 333 322 318 317 309 342 344 319 307 17 352 340 236 249 229 229 253 225 228 184 184 197 167 179 125 185 56 62
344 343 326 320 340 341 352 32 40 36 39 37 18 359 342 329 322 317 308 322 335 345 331 311 337 342 343 319 305 287 257 220 206 230 213 166 256 292 113 113 96 89 73 69
317 336 304 3 40 41 41 26 37 68 64 60 32 13 357 341 334 336 333 325 324 333 311 293 320 319 313 289 291 359 24 338 45 332 49 107 102 98 89 85 84 70 59 65
19 310 216 55 31 40 41 23 79 80 87 54 34 38 25 6 338 330 323 319 310 302 299 327 330 313 359 29 43 40 39 39 47 71 72 81 87 97 97 92 108 102 87 81
12 357 20 57 37 26 44 59 79 57 75 43 69 45 32 8 1 348 345 345 351 3 27 20 25 28 38 38 46 52 62 60 53 54 62 60 62 75 83 82 100 135 185 175
352 247 44 89 52 53 53 72 65 58 78 79 64 61 50 33 21 17 27 17 22 23 23 23 25 39 43 54 54 56 57 47 58 53 57 61 71 86 89 106 179 286 306 282